map of LRM home
Great Circle Mapper logo
LRM - Airport
Location
City:  La Romana, Dominican Republic
Name:Casa de Campo International Airport
ICAO / IATA:MDLR / LRM

Details
Type:Airport (Aerodrome, Airfield)
Use:Public/Civil, International (customs port of entry)
Latitude:1827'03"N (18.450711)
Longitude:6854'43"W (-68.911832)
Datum:WGS 1984
Elevation:240 ft (73 m)
Variation:11.7W (WMM2010 magnetic declination)
Runways:1
Longest:9676 × 148 ft (2949 × 45 m), paved

Time
Time Zone:UTC-4
Local Time:

Weather
METAR:MDLR 230200Z 00000KT 9999 FEW016CB FEW016 24/24 Q1016 CB/SW
TAF:MDLR 221600Z 2218/2318 04015KT 9999 FEW018CB SCT020
TEMPO 2218/2300 6000 -SHRA FEW014CB BKN016
BECMG 2223/2301 00000KT

Related Locations
Nearby:
Farthest:EXM: 12121 mi / 19507 km
Exmouth Gulf, WA, AU

Find:

   beyond  
but within

Other Information
Maps:
NOTAMs:
Links:
Sources:

  
flag of Dominican Republic   

Sectional Chart

Flight Planning
at skyvector.com

Satellite Image

Google Maps Satellite View

 

Copyright © 2004-2014 Karl L. Swartz. All rights reserved.
The Great Circle Mapper name and logo are trademarks of the Great Circle Mapper.
All other trademarks mentioned herein belong to their respective owners.
Please see credits for attibutions and further copyright information.

  Follow gcmap on Facebook Follow gcmap on Twitter

hCard Microformat

Geo Microformat